Location: USNO
(38.9242°N, 77.0663°W)
Time: 16:31:12
(UTC-05:00)

Tiangong 2 - Pass Details

Date: 11 October 2017
Orbit: 386 x 390 km, 42.8° (Epoch: 15 December)

Event Time Altitude Azimuth Distance (km) Brightness Sun altitude
Exits shadow 06:09:41 26° 279° (W) 818 2.1 -13.3°
Maximum altitude 06:11:14 54° 347° (NNW) 483 1.4 -13.0°
Drops below altitude 10° 06:14:24 10° 66° (ENE) 1,427 5.1 -12.4°
Sets 06:16:31 0° 71° (ENE) 2,285 6.5 -12.0°
